Flag for Russia Weather past 2 weeks in Chelyabinsk, Russia

Now
55 °F

Clear.


Feels Like: 53 °F
Forecast: 53 / 78 °F
Wind: 10 mph from West

Location: Chelyabinsk-Balandino

Current Time: Jul 30, 2015 at 3:52:19 AM

Latest Report: Jul 30, 2015 at 2:30 AM


Visibility: 10 mi

Pressure: 29.86 "Hg

Humidity: 88%

Dew point: 52 °F

Location of ChelyabinskLocation

Historic Weather in Chelyabinsk — Graph

°F

Chelyabinsk temperature yesterday

Maximum temperature yesterday: 73 °F (at 3:30 PM)
Minimum temperature yesterday: 55 °F (at 1:30 AM)
Average temperature yesterday: 64 °F

Past Weeks' High & Low Weather Summary

 TemperatureHumidityPressure
High79 °F (Jul 15, 5:00 PM)100% (Jul 16, 11:30 PM)29.95 "Hg (Jul 16, 11:30 PM)
Low48 °F (Jul 21, 3:00 AM)29% (Jul 15, 1:30 PM)29.50 "Hg (Jul 18, 6:30 AM)
Average62 °F71%29.73 "Hg
* Reported Jul 15 2:00 AM — Jul 30 2:30 AM, Chelyabinsk, Weather by CustomWeather, © 2015

Note: Actual official high and low records may vary slightly from our data, if they occured in-between our weather recording intervals... More about our weather records

Advertising

Chelyabinsk weather history for previous 24 hours

 ConditionsComfort  
Time TempWeatherWind HumidityBarometerVisibility
2:30 AM
Thu, Jul 30
55 °FClear.10 mph88%29.86 "Hg10 mi
2:00 AM52 °FClear.8 mph94%29.86 "Hg10 mi
1:30 AM54 °FClear.8 mph88%29.86 "Hg10 mi
1:00 AM54 °FClear.8 mph88%29.86 "Hg10 mi
12:30 AM55 °FClear.8 mph82%29.86 "Hg10 mi
12:00 AM57 °FClear.8 mph82%29.86 "Hg10 mi
11:30 PM
Wed, Jul 29
57 °FClear.8 mph82%29.86 "Hg10 mi
11:00 PM59 °FSunny.8 mph82%29.86 "Hg10 mi
10:30 PM59 °FSunny.8 mph82%29.86 "Hg10 mi
10:00 PM61 °FSunny.8 mph77%29.83 "Hg10 mi
9:00 PM61 °FPassing clouds.6 mph77%29.83 "HgN/A
8:30 PM66 °FPassing clouds.8 mph64%29.83 "HgN/A
8:00 PM68 °FPassing clouds.8 mph60%29.83 "HgN/A
7:30 PM70 °FPassing clouds.8 mph60%29.83 "HgN/A
7:00 PM68 °FScattered clouds.6 mph64%29.83 "HgN/A
6:30 PM72 °FScattered clouds.8 mph53%29.83 "HgN/A
6:00 PM70 °FScattered clouds.8 mph53%29.83 "HgN/A
5:30 PM73 °FScattered clouds.10 mph50%29.80 "HgN/A
5:00 PM73 °FScattered clouds.10 mph47%29.80 "HgN/A
4:30 PM73 °FScattered clouds.10 mph47%29.80 "HgN/A
4:00 PM73 °FScattered clouds.8 mph44%29.80 "HgN/A
3:30 PM73 °FScattered clouds.13 mph47%29.80 "HgN/A
3:00 PM72 °FScattered clouds.13 mph50%29.80 "HgN/A
2:30 PM72 °FScattered clouds.13 mph53%29.80 "HgN/A
2:00 PM72 °FScattered clouds.13 mph53%29.80 "HgN/A
1:30 PM72 °FScattered clouds.13 mph53%29.80 "HgN/A
1:00 PM70 °FScattered clouds.13 mph53%29.80 "HgN/A
12:30 PM70 °FScattered clouds.15 mph53%29.80 "HgN/A
12:00 PM70 °FScattered clouds.15 mph57%29.80 "HgN/A
11:30 AM70 °FScattered clouds.15 mph57%29.80 "HgN/A
11:00 AM68 °FScattered clouds.15 mph60%29.80 "HgN/A
10:30 AM66 °FScattered clouds.15 mph68%29.80 "HgN/A
10:00 AM66 °FScattered clouds.15 mph64%29.80 "HgN/A
9:30 AM66 °FScattered clouds.13 mph68%29.80 "HgN/A
9:00 AM63 °FScattered clouds.13 mph77%29.80 "HgN/A
8:30 AM63 °FPassing clouds.13 mph77%29.80 "HgN/A
8:00 AM61 °FPassing clouds.13 mph77%29.80 "HgN/A
7:30 AM59 °FPassing clouds.13 mph82%29.80 "HgN/A
7:00 AM59 °FPassing clouds.15 mph82%29.80 "HgN/A
6:30 AM57 °FPassing clouds.13 mph88%29.80 "HgN/A
6:00 AM57 °FPassing clouds.13 mph88%29.80 "HgN/A
5:30 AM57 °FPassing clouds.13 mph88%29.80 "HgN/A
5:00 AM57 °FPassing clouds.13 mph88%29.77 "HgN/A
4:30 AM57 °FPassing clouds.13 mph88%29.77 "HgN/A
4:00 AM57 °FPassing clouds.13 mph88%29.77 "HgN/A
3:30 AM57 °FPassing clouds.13 mph88%29.77 "HgN/A
3:00 AM57 °FPassing clouds.13 mph88%29.77 "HgN/A
Weather by CustomWeather, © 2015

See weather overviewHow to use our weather pages